Boulder City, NV

10:09 PM PST on January 21, 2017 (GMT -0800)
Boulder City

Weather History for KBVU - April, 2014

Change the Weather History Date:

Friday, April 4, 2014

  Actual Average (KLAS) Record (KLAS)
Temperature  
Mean Temperature 57 °F -  
Max Temperature 68 °F 74 °F 94 °F (1961)
Min Temperature 46 °F 47 °F 31 °F (1945)
Degree Days  
Heating Degree Days 8    
Growing Degree Days 7 (Base 50)    
Moisture  
Dew Point 20 °F    
Average Humidity 25    
Maximum Humidity 46    
Minimum Humidity 13    
Precipitation  
Precipitation 0.00 in - - ()
Sea Level Pressure  
Sea Level Pressure 29.91 in    
Wind  
Wind Speed 3 mph (ESE)    
Max Wind Speed 15 mph    
Max Gust Speed 23 mph    
Visibility 10 miles    
Events Thunderstorm    
Averages and records for this station are not official NWS values.
T = Trace of Precipitation, MM = Missing Value Source: NWS Daily Summary

Daily Weather History Graph

Daily Weather History Graph

Search for Another Location

Airport or City:

Trip Planner

Search our weather history database for the weather conditions in past years. The results will help you decide how hot, cold, wet, or windy it might be!

Date:

Astronomy

Apr. 04, 2014 Rise Set
Actual Time 6:21 AM PDT 7:03 PM PDT
Civil Twilight 5:55 AM PDT 7:29 PM PDT
Nautical Twilight 5:24 AM PDT 8:00 PM PDT
Astronomical Twilight 4:53 AM PDT 8:31 PM PDT
Moon 9:48 AM PDT (4/4) No Moon Set
Length of Visible Light 13h 34m
Length of Day
12h 42m
Waxing Crescent, 26% of the Moon is Illuminated
Apr 4
Waxing Crescent
Apr 7
First Quarter
Apr 15
Full
Apr 22
Last Quarter
Apr 28
New

Hourly Weather History & Observations

Time (PDT) Temp. Windchill Dew Point Humidity Pressure Visibility Wind Dir Wind Speed Gust Speed Precip Events Conditions
12:15 AM 51.8 °F - 30.2 °F 44% 30.01 in 10.0 mi ENE 3.5 mph - N/A   Clear
12:35 AM 53.6 °F - 24.8 °F 33% 30.01 in 10.0 mi Calm Calm - N/A   Clear
12:55 AM 51.8 °F - 24.8 °F 35% 30.00 in 10.0 mi Calm Calm - N/A   Clear
1:15 AM 50.0 °F - 23.0 °F 35% 29.99 in 10.0 mi NNE 3.5 mph - N/A   Clear
1:55 AM 50.0 °F - 23.0 °F 35% 29.99 in 10.0 mi Calm Calm - N/A   Clear
2:15 AM 48.2 °F - 28.4 °F 46% 29.99 in 10.0 mi NNE 3.5 mph - N/A   Clear
2:35 AM 48.2 °F - 24.8 °F 40% 29.98 in 10.0 mi North 3.5 mph - N/A   Clear
2:55 AM 50.0 °F - 24.8 °F 37% 29.98 in 10.0 mi Calm Calm - N/A   Clear
3:15 AM 50.0 °F - 26.6 °F 40% 29.97 in 10.0 mi Calm Calm - N/A   Clear
3:35 AM 48.2 °F - 26.6 °F 43% 29.97 in 10.0 mi NNW 3.5 mph - N/A Thunderstorm Clear
3:55 AM 48.2 °F - 28.4 °F 46% 29.97 in 10.0 mi Calm Calm - N/A   Clear
4:15 AM 48.2 °F - 24.8 °F 40% 29.97 in 10.0 mi Calm Calm - N/A   Clear
4:35 AM 48.2 °F - 23.0 °F 37% 29.96 in 10.0 mi Calm Calm - N/A   Clear
4:55 AM 48.2 °F - 23.0 °F 37% 29.96 in 10.0 mi Calm Calm - N/A   Clear
5:15 AM 48.2 °F - 24.8 °F 40% 29.96 in 10.0 mi Calm Calm - N/A   Clear
5:35 AM 46.4 °F - 24.8 °F 43% 29.96 in 10.0 mi Calm Calm - N/A Thunderstorm Clear
5:55 AM 46.4 °F - 26.6 °F 46% 29.96 in 10.0 mi Calm Calm - N/A   Clear
6:15 AM 46.4 °F 45.2 °F 24.8 °F 43% 29.96 in 10.0 mi NNE 3.5 mph - N/A   Clear
6:35 AM 46.4 °F 45.2 °F 26.6 °F 46% 29.96 in 10.0 mi NNE 3.5 mph - N/A   Clear
6:55 AM 50.0 °F - 26.6 °F 40% 29.97 in 10.0 mi NNE 5.8 mph - N/A   Clear
7:15 AM 51.8 °F - 24.8 °F 35% 29.97 in 10.0 mi NE 6.9 mph - N/A   Clear
7:35 AM 55.4 °F - 24.8 °F 31% 29.97 in 10.0 mi East 3.5 mph - N/A   Clear
7:55 AM 53.6 °F - 19.4 °F 26% 29.98 in 10.0 mi Calm Calm - N/A   Clear
8:15 AM 53.6 °F - 19.4 °F 26% 29.97 in 10.0 mi Calm Calm - N/A   Clear
8:35 AM 55.4 °F - 19.4 °F 25% 29.98 in 10.0 mi Calm Calm - N/A   Clear
8:55 AM 55.4 °F - 19.4 °F 25% 29.98 in 10.0 mi Calm Calm - N/A   Clear
9:15 AM 57.2 °F - 19.4 °F 23% 29.98 in 10.0 mi Calm Calm - N/A   Clear
9:35 AM 59.0 °F - 19.4 °F 22% 29.98 in 10.0 mi Calm Calm - N/A   Partly Cloudy
9:55 AM 60.8 °F - 19.4 °F 20% 29.98 in 10.0 mi East 5.8 mph - N/A   Clear
10:15 AM 62.6 °F - 19.4 °F 19% 29.97 in 10.0 mi Variable 5.8 mph - N/A   Clear
10:35 AM 62.6 °F - 19.4 °F 19% 29.98 in 10.0 mi SE 8.1 mph - N/A   Partly Cloudy
10:55 AM 64.4 °F - 17.6 °F 16% 29.97 in 10.0 mi Variable 3.5 mph - N/A   Partly Cloudy
11:15 AM 64.4 °F - 17.6 °F 16% 29.96 in 10.0 mi Variable 3.5 mph - N/A   Clear
11:55 AM 66.2 °F - 17.6 °F 15% 29.94 in 10.0 mi SSE 9.2 mph - N/A Thunderstorm Clear
12:15 PM 66.2 °F - 17.6 °F 15% 29.93 in 10.0 mi ESE 9.2 mph 15.0 mph N/A   Partly Cloudy
12:35 PM 68.0 °F - 15.8 °F 13% 29.92 in 10.0 mi East 9.2 mph - N/A   Clear
12:55 PM 68.0 °F - 17.6 °F 15% 29.91 in 10.0 mi Variable 5.8 mph 16.1 mph N/A   Partly Cloudy
1:15 PM 68.0 °F - 19.4 °F 16% 29.90 in 10.0 mi West 15.0 mph - N/A   Scattered Clouds
1:35 PM 68.0 °F - 19.4 °F 16% 29.89 in 10.0 mi NW 8.1 mph - N/A   Mostly Cloudy
1:55 PM 66.2 °F - 17.6 °F 15% 29.89 in 10.0 mi Calm Calm - N/A   Mostly Cloudy
2:15 PM 66.2 °F - 19.4 °F 17% 29.88 in 10.0 mi West 8.1 mph - N/A   Mostly Cloudy
2:35 PM 68.0 °F - 19.4 °F 16% 29.88 in 10.0 mi SW 9.2 mph - N/A   Partly Cloudy
2:55 PM 68.0 °F - 21.2 °F 17% 29.88 in 10.0 mi SSE 10.4 mph 23.0 mph N/A   Partly Cloudy
3:15 PM 66.2 °F - 21.2 °F 18% 29.87 in 10.0 mi SE 12.7 mph 20.7 mph N/A   Partly Cloudy
3:35 PM 66.2 °F - 21.2 °F 18% 29.86 in 10.0 mi Calm Calm - N/A   Partly Cloudy
3:55 PM 66.2 °F - 21.2 °F 18% 29.85 in 10.0 mi ENE 8.1 mph 15.0 mph N/A   Partly Cloudy
4:15 PM 66.2 °F - 21.2 °F 18% 29.84 in 10.0 mi Calm Calm 11.5 mph N/A   Partly Cloudy
4:35 PM 66.2 °F - 21.2 °F 18% 29.83 in 10.0 mi NE 5.8 mph - N/A   Partly Cloudy
4:55 PM 66.2 °F - 19.4 °F 17% 29.83 in 10.0 mi Variable 5.8 mph - N/A   Partly Cloudy
5:15 PM 66.2 °F - 19.4 °F 17% 29.83 in 10.0 mi South 8.1 mph - N/A   Partly Cloudy
5:35 PM 66.2 °F - 17.6 °F 15% 29.83 in 10.0 mi SSW 10.4 mph - N/A   Scattered Clouds
5:55 PM 66.2 °F - 17.6 °F 15% 29.82 in 10.0 mi SSW 4.6 mph - N/A   Mostly Cloudy
6:15 PM 66.2 °F - 17.6 °F 15% 29.82 in 10.0 mi Variable 5.8 mph 15.0 mph N/A   Mostly Cloudy
6:35 PM 66.2 °F - 17.6 °F 15% 29.82 in 10.0 mi South 8.1 mph - N/A   Mostly Cloudy
6:55 PM 66.2 °F - 17.6 °F 15% 29.82 in 10.0 mi WSW 5.8 mph - N/A   Overcast
7:15 PM 64.4 °F - 14.0 °F 14% 29.82 in 10.0 mi SW 6.9 mph - N/A   Scattered Clouds
7:35 PM 64.4 °F - 12.2 °F 13% 29.82 in 10.0 mi WSW 6.9 mph - N/A   Partly Cloudy
7:55 PM 62.6 °F - 12.2 °F 14% 29.82 in 10.0 mi SW 5.8 mph - N/A   Clear
8:15 PM 62.6 °F - 12.2 °F 14% 29.83 in 10.0 mi Calm Calm - N/A   Clear
8:35 PM 62.6 °F - 12.2 °F 14% 29.83 in 10.0 mi Calm Calm - N/A   Clear
8:55 PM 60.8 °F - 14.0 °F 16% 29.83 in 10.0 mi Calm Calm - N/A   Clear
9:15 PM 60.8 °F - 14.0 °F 16% 29.83 in 10.0 mi Calm Calm - N/A   Clear
9:35 PM 59.0 °F - 15.8 °F 19% 29.83 in 10.0 mi Calm Calm - N/A   Clear
9:55 PM 57.2 °F - 17.6 °F 21% 29.83 in 10.0 mi Calm Calm - N/A   Mostly Cloudy
10:15 PM 57.2 °F - 23.0 °F 27% 29.83 in 10.0 mi Calm Calm - N/A   Overcast
10:35 PM 59.0 °F - 14.0 °F 17% 29.82 in 10.0 mi Calm Calm - N/A   Overcast
10:55 PM 59.0 °F - 14.0 °F 17% 29.82 in 10.0 mi Calm Calm - N/A   Overcast
11:15 PM 57.2 °F - 14.0 °F 18% 29.82 in 10.0 mi Calm Calm - N/A   Scattered Clouds
11:35 PM 55.4 °F - 19.4 °F 25% 29.82 in 10.0 mi Calm Calm - N/A   Clear
11:55 PM 55.4 °F - 23.0 °F 29% 29.82 in 10.0 mi Calm Calm - N/A   Clear